Seldovia, AK

6:11 PM AKST on January 20, 2018 (GMT -0900)
Seldovia

Weather History for PASO - December, 2011

Change the Weather History Date:

Friday, December 30, 2011

  Actual Average (PAHO) Record (PAHO)
Temperature  
Mean Temperature 9 °F -  
Max Temperature 12 °F 31 °F 47 °F (1941)
Min Temperature 6 °F 19 °F -6 °F (1949)
Degree Days  
Heating Degree Days 56    
Moisture  
Dew Point 2 °F    
Average Humidity 78    
Maximum Humidity 92    
Minimum Humidity 56    
Precipitation  
Precipitation 0.19 in - - ()
Sea Level Pressure  
Sea Level Pressure 29.49 in    
Wind  
Wind Speed 8 mph (South)    
Max Wind Speed 14 mph    
Max Gust Speed 26 mph    
Visibility 2 miles    
Events Fog , Snow    
Averages and records for this station are not official NWS values.
T = Trace of Precipitation, MM = Missing Value Source: NWS Daily Summary

Daily Weather History Graph

Daily Weather History Graph

Search for Another Location

Airport or City:

Trip Planner

Search our weather history database for the weather conditions in past years. The results will help you decide how hot, cold, wet, or windy it might be!

Date:

Astronomy

Dec. 30, 2011 Rise Set
Actual Time 10:04 AM AKST 4:14 PM AKST
Civil Twilight 9:09 AM AKST 5:09 PM AKST
Nautical Twilight 8:14 AM AKST 6:04 PM AKST
Astronomical Twilight 7:23 AM AKST 6:55 PM AKST
Moon 11:45 AM AKST (12/30) No Moon Set
Length of Visible Light 8h 00m
Length of Day
6h 09m
Waxing Crescent, 37% of the Moon is Illuminated
Dec 30
Waxing Crescent
Dec 31
First Quarter
Jan 8
Full
Jan 16
Last Quarter
Jan 22
New

Hourly Weather History & Observations

Time (AKST) Temp. Windchill Dew Point Humidity Pressure Visibility Wind Dir Wind Speed Gust Speed Precip Events Conditions
12:20 AM 8.6 °F -5.5 °F 1.4 °F 73% 29.40 in 3.0 mi SSW 10.4 mph 17.3 mph 0.00 in Snow Light Snow
12:39 AM 8.6 °F -2.6 °F 1.4 °F 73% 29.40 in 2.5 mi SW 6.9 mph - 0.00 in Snow Light Snow
12:49 AM 8.6 °F -1.3 °F 1.4 °F 73% 29.40 in 4.0 mi Variable 5.8 mph - 0.00 in Snow Light Snow
12:53 AM 9.0 °F -5.1 °F 1.0 °F 70% 29.40 in 4.0 mi SSW 10.4 mph - 0.00 in Snow Light Snow
1:30 AM 8.6 °F -4.7 °F 1.4 °F 73% 29.39 in 2.5 mi South 9.2 mph 21.9 mph 0.00 in Snow Light Snow
1:44 AM 8.6 °F 0.1 °F 3.2 °F 79% 29.39 in 4.0 mi Variable 4.6 mph - 0.00 in Snow Light Snow
1:53 AM 8.1 °F -0.5 °F 3.0 °F 80% 29.39 in 4.0 mi Variable 4.6 mph - 0.00 in Snow Light Snow
1:58 AM 8.6 °F -2.6 °F 3.2 °F 79% 29.39 in 2.5 mi South 6.9 mph - 0.00 in Snow Light Snow
2:37 AM 8.6 °F -3.7 °F 1.4 °F 73% 29.38 in 3.0 mi SSW 8.1 mph - 0.00 in Snow Light Snow
2:45 AM 8.6 °F -2.6 °F 1.4 °F 73% 29.38 in 3.0 mi South 6.9 mph - 0.00 in Snow Light Snow
2:50 AM 8.6 °F -2.6 °F 1.4 °F 73% 29.38 in 2.5 mi Variable 6.9 mph 16.1 mph 0.00 in Snow Light Snow
3:08 AM 8.6 °F 0.1 °F 1.4 °F 73% 29.38 in 5.0 mi Variable 4.6 mph - 0.00 in Snow Light Snow
3:20 AM 8.6 °F -2.6 °F 1.4 °F 73% 29.37 in 4.0 mi SSE 6.9 mph - 0.00 in Snow Light Snow
3:36 AM 8.6 °F -2.6 °F 3.2 °F 79% 29.37 in 1.8 mi Variable 6.9 mph - 0.00 in Snow Light Snow
3:50 AM 8.6 °F -2.6 °F 3.2 °F 79% 29.36 in 3.0 mi South 6.9 mph - 0.00 in Snow Light Snow
3:53 AM 9.0 °F -2.2 °F 3.0 °F 77% 29.37 in 3.0 mi South 6.9 mph - 0.00 in Snow Light Snow
3:57 AM 8.6 °F 0.1 °F 3.2 °F 79% 29.36 in 1.8 mi Variable 4.6 mph - 0.00 in Snow Light Snow
4:07 AM 8.6 °F -4.7 °F 5.0 °F 85% 29.36 in 1.0 mi South 9.2 mph - 0.00 in Snow Light Snow
4:40 AM 10.4 °F -1.5 °F 6.8 °F 85% 29.35 in 0.8 mi South 8.1 mph - 0.01 in Snow Light Snow
4:53 AM 10.0 °F -1.9 °F 8.1 °F 92% 29.35 in 0.5 mi SSW 8.1 mph - 0.03 in Fog , Snow Snow
5:50 AM 12.2 °F -0.2 °F 8.6 °F 85% 29.34 in 1.0 mi South 9.2 mph 23.0 mph 0.02 in Snow Light Snow
5:53 AM 12.0 °F -2.7 °F 9.0 °F 88% 29.34 in 1.0 mi South 12.7 mph 24.2 mph 0.02 in Snow Light Snow
6:09 AM 10.4 °F -3.3 °F 8.6 °F 92% 29.34 in 3.0 mi South 10.4 mph 26.5 mph 0.00 in Snow Light Snow
6:53 AM 10.9 °F -3.4 °F 6.1 °F 81% 29.37 in 5.0 mi South 11.5 mph 21.9 mph 0.00 in Snow Light Snow
7:53 AM 10.0 °F -2.9 °F 5.0 °F 80% 29.39 in 10.0 mi South 9.2 mph 16.1 mph 0.00 in   Overcast
8:29 AM 10.4 °F -3.3 °F 5.0 °F 79% 29.41 in 1.8 mi South 10.4 mph - 0.01 in Snow Light Snow
8:36 AM 10.4 °F -3.3 °F 5.0 °F 79% 29.41 in 1.2 mi SSW 10.4 mph 18.4 mph 0.01 in Snow Light Snow
8:51 AM 10.4 °F -1.5 °F 6.8 °F 85% 29.41 in 0.8 mi SSW 8.1 mph 16.1 mph 0.03 in Snow Light Snow
8:53 AM 10.0 °F -2.9 °F 6.1 °F 84% 29.42 in 0.8 mi South 9.2 mph 16.1 mph 0.03 in Snow Light Snow
9:48 AM 8.6 °F -7.0 °F 5.0 °F 85% 29.43 in 0.8 mi South 12.7 mph 24.2 mph 0.02 in Snow Light Snow
9:53 AM 9.0 °F -7.3 °F 5.0 °F 84% 29.44 in 0.8 mi South 13.8 mph 23.0 mph 0.02 in Snow Light Snow
10:02 AM 8.6 °F -4.7 °F 3.2 °F 79% 29.44 in 1.2 mi South 9.2 mph 25.3 mph 0.00 in Snow Light Snow
10:27 AM 6.8 °F -9.3 °F 3.2 °F 85% 29.45 in 2.0 mi South 12.7 mph 24.2 mph 0.00 in Snow Light Snow
10:40 AM 6.8 °F -4.8 °F 1.4 °F 79% 29.45 in 3.0 mi Variable 6.9 mph 21.9 mph 0.00 in Snow Light Snow
10:53 AM 7.0 °F -5.7 °F 1.9 °F 80% 29.46 in 2.0 mi South 8.1 mph - 0.00 in Snow Light Snow
11:01 AM 6.8 °F -4.8 °F 1.4 °F 79% 29.46 in 1.2 mi SSW 6.9 mph 17.3 mph 0.00 in Snow Light Snow
11:28 AM 6.8 °F -3.5 °F 1.4 °F 79% 29.46 in 1.8 mi Variable 5.8 mph - 0.00 in Snow Light Snow
11:53 AM 7.0 °F -1.7 °F 1.9 °F 80% 29.47 in 1.0 mi SSW 4.6 mph - 0.00 in Snow Light Snow
12:09 PM 6.8 °F -0.1 °F 1.4 °F 79% 29.47 in 0.8 mi Variable 3.5 mph - 0.01 in Snow Light Snow
12:17 PM 6.8 °F -2.0 °F 1.4 °F 79% 29.46 in 0.5 mi Variable 4.6 mph - 0.01 in Snow Snow
12:53 PM 7.0 °F -5.7 °F 1.9 °F 80% 29.47 in 0.8 mi South 8.1 mph 18.4 mph 0.01 in Snow Light Snow
1:01 PM 6.8 °F -3.5 °F -0.4 °F 72% 29.47 in 1.0 mi South 5.8 mph - 0.00 in Snow Light Snow
1:32 PM 6.8 °F -9.3 °F 1.4 °F 79% 29.47 in 0.8 mi South 12.7 mph 18.4 mph 0.01 in Snow Light Snow
1:42 PM 6.8 °F -6.9 °F -0.4 °F 72% 29.47 in 1.2 mi South 9.2 mph - 0.01 in Snow Light Snow
1:53 PM 6.1 °F -9.5 °F -0.0 °F 76% 29.47 in 0.8 mi South 11.5 mph - 0.01 in Snow Light Snow
2:53 PM 6.1 °F -4.3 °F -0.0 °F 76% 29.49 in 0.8 mi South 5.8 mph - 0.01 in Snow Light Snow
3:00 PM 6.8 °F -5.9 °F 1.4 °F 79% 29.48 in 1.0 mi South 8.1 mph - 0.00 in Snow Light Snow
3:42 PM 6.8 °F -4.8 °F 1.4 °F 79% 29.50 in 0.8 mi South 6.9 mph - 0.00 in Snow Light Snow
3:53 PM 6.1 °F -2.8 °F 1.0 °F 80% 29.50 in 0.8 mi South 4.6 mph - 0.00 in Snow Light Snow
4:36 PM 6.8 °F -4.8 °F 1.4 °F 79% 29.51 in 1.0 mi Variable 6.9 mph - 0.02 in Snow Light Snow
4:53 PM 6.1 °F -6.8 °F -0.0 °F 76% 29.52 in 1.8 mi South 8.1 mph - 0.02 in Snow Light Snow
5:53 PM 6.1 °F -5.6 °F 1.9 °F 83% 29.54 in 1.8 mi Variable 6.9 mph - 0.00 in Snow Light Snow
6:22 PM 6.8 °F -4.8 °F -0.4 °F 72% 29.54 in 2.5 mi Variable 6.9 mph - 0.01 in Snow Light Snow
6:27 PM 6.8 °F -5.9 °F -0.4 °F 72% 29.55 in 1.8 mi SSW 8.1 mph - 0.01 in Snow Light Snow
6:35 PM 6.8 °F -6.9 °F 1.4 °F 79% 29.55 in 1.2 mi SSW 9.2 mph - 0.01 in Snow Light Snow
6:40 PM 6.8 °F -6.9 °F -0.4 °F 72% 29.55 in 2.0 mi SSW 9.2 mph - 0.01 in Snow Light Snow
6:53 PM 6.1 °F -4.3 °F 1.0 °F 80% 29.55 in 2.0 mi SSW 5.8 mph - 0.01 in Snow Light Snow
7:02 PM 6.8 °F -7.8 °F 1.4 °F 79% 29.55 in 1.5 mi South 10.4 mph 16.1 mph 0.00 in Snow Light Snow
7:19 PM 6.8 °F -3.5 °F -0.4 °F 72% 29.56 in 2.0 mi South 5.8 mph - 0.00 in Snow Light Snow
7:28 PM 6.8 °F -4.8 °F 1.4 °F 79% 29.56 in 2.5 mi South 6.9 mph - 0.00 in Snow Light Snow
7:32 PM 6.8 °F -3.5 °F 1.4 °F 79% 29.57 in 1.8 mi South 5.8 mph - 0.00 in Snow Light Snow
7:41 PM 6.8 °F -2.0 °F 1.4 °F 79% 29.57 in 2.0 mi Variable 4.6 mph - 0.00 in Snow Light Snow
7:50 PM 6.8 °F -2.0 °F 1.4 °F 79% 29.57 in 1.8 mi SSE 4.6 mph - 0.00 in Snow Light Snow
7:53 PM 6.1 °F -4.3 °F 1.0 °F 80% 29.57 in 1.8 mi SSE 5.8 mph - 0.00 in Snow Light Snow
8:03 PM 6.8 °F -2.0 °F 1.4 °F 79% 29.57 in 1.5 mi SSE 4.6 mph - 0.00 in Snow Light Snow
8:26 PM 6.8 °F -4.8 °F 1.4 °F 79% 29.58 in 1.2 mi South 6.9 mph - 0.02 in Snow Light Snow
8:35 PM 6.8 °F - 1.4 °F 79% 29.59 in 1.5 mi Calm Calm - 0.02 in Snow Light Snow
8:53 PM 6.1 °F -4.3 °F 1.0 °F 80% 29.59 in 2.0 mi South 5.8 mph - 0.02 in Snow Light Snow
9:09 PM 6.8 °F -3.5 °F 1.4 °F 79% 29.60 in 1.8 mi South 5.8 mph - 0.00 in Snow Light Snow
9:38 PM 6.8 °F -6.9 °F 1.4 °F 79% 29.61 in 2.0 mi South 9.2 mph - 0.00 in Snow Light Snow
9:44 PM 6.8 °F -7.8 °F 1.4 °F 79% 29.61 in 2.5 mi South 10.4 mph - 0.00 in Snow Light Snow
9:53 PM 6.1 °F -6.8 °F -0.0 °F 76% 29.62 in 2.5 mi South 8.1 mph - 0.00 in Snow Light Snow
10:04 PM 6.8 °F -4.8 °F -0.4 °F 72% 29.62 in 1.8 mi South 6.9 mph - 0.01 in Snow Light Snow
10:09 PM 6.8 °F -4.8 °F 1.4 °F 79% 29.62 in 2.0 mi South 6.9 mph - 0.01 in Snow Light Snow
10:16 PM 6.8 °F -2.0 °F 1.4 °F 79% 29.62 in 1.8 mi South 4.6 mph - 0.01 in Snow Light Snow
10:38 PM 6.8 °F -3.5 °F 1.4 °F 79% 29.63 in 2.5 mi South 5.8 mph - 0.01 in Snow Light Snow
10:49 PM 6.8 °F -4.8 °F -5.8 °F 56% 29.63 in 3.0 mi South 6.9 mph - 0.01 in Snow Light Snow
10:51 PM 6.8 °F -4.8 °F -5.8 °F 56% 29.63 in 2.5 mi South 6.9 mph - 0.01 in Snow Light Snow
10:53 PM 6.1 °F -6.8 °F -5.1 °F 60% 29.64 in 2.5 mi South 8.1 mph - 0.01 in Snow Light Snow
11:00 PM 6.8 °F -5.9 °F -0.4 °F 72% 29.64 in 1.8 mi South 8.1 mph - 0.00 in Snow Light Snow
11:08 PM 6.8 °F -3.5 °F 1.4 °F 79% 29.64 in 1.8 mi South 5.8 mph - 0.00 in Snow Light Snow
11:28 PM 6.8 °F -8.6 °F -0.4 °F 72% 29.65 in 3.0 mi South 11.5 mph - 0.00 in Snow Light Snow
11:53 PM 6.1 °F -6.8 °F 1.0 °F 80% 29.66 in 3.0 mi South 8.1 mph - 0.00 in Snow Light Snow